Fort Worth, TX

1:59 PM CST on January 20, 2017 (GMT -0600)
Fort Worth Alliance

Weather History for KAFW - August, 2013

Change the Weather History Date:

Thursday, August 8, 2013

  Actual Average Record
Temperature  
Mean Temperature 90 °F -  
Max Temperature 100 °F 94 °F 108 °F (2011)
Min Temperature 81 °F 71 °F 62 °F (1997)
Cooling Degree Days 26    
Growing Degree Days 40 (Base 50)    
Moisture  
Dew Point 66 °F    
Average Humidity 47    
Maximum Humidity 72    
Minimum Humidity 29    
Precipitation  
Precipitation 0.00 in - - ()
Sea Level Pressure  
Sea Level Pressure 29.78 in    
Wind  
Wind Speed 7 mph (South)    
Max Wind Speed 12 mph    
Max Gust Speed 20 mph    
Visibility 10 miles    
Events      
Averages and records for this station are not official NWS values.
T = Trace of Precipitation, MM = Missing Value Source: NWS Daily Summary

Daily Weather History Graph

Daily Weather History Graph

Search for Another Location

Airport or City:

Trip Planner

Search our weather history database for the weather conditions in past years. The results will help you decide how hot, cold, wet, or windy it might be!

Date:

Astronomy

Aug. 08, 2013 Rise Set
Actual Time 6:47 AM CDT 8:21 PM CDT
Civil Twilight 6:21 AM CDT 8:47 PM CDT
Nautical Twilight 5:49 AM CDT 9:19 PM CDT
Astronomical Twilight 5:15 AM CDT 9:52 PM CDT
Moon 8:26 AM CDT (8/8) 9:11 PM CDT (8/8)
Length of Visible Light 14h 26m
Length of Day
13h 33m
Waxing Crescent, 3% of the Moon is Illuminated
Aug 8
Waxing Crescent
Aug 14
First Quarter
Aug 20
Full
Aug 28
Last Quarter
Sep 5
New

Hourly Weather History & Observations

Time (CDT) Temp. Heat Index Dew Point Humidity Pressure Visibility Wind Dir Wind Speed Gust Speed Precip Events Conditions
12:53 AM 88.0 °F 88.4 °F 62.1 °F 42% 29.77 in 10.0 mi South 9.2 mph - N/A   Clear
1:53 AM 88.0 °F 87.9 °F 61.0 °F 40% 29.77 in 10.0 mi South 8.1 mph - N/A   Clear
2:53 AM 86.0 °F 87.3 °F 64.0 °F 48% 29.76 in 10.0 mi South 11.5 mph 19.6 mph N/A   Clear
3:53 AM 84.9 °F 87.6 °F 66.9 °F 55% 29.75 in 10.0 mi SSW 8.1 mph - N/A   Clear
4:53 AM 82.9 °F 85.8 °F 68.0 °F 60% 29.75 in 10.0 mi SSW 3.5 mph - N/A   Clear
5:53 AM 82.0 °F 85.9 °F 70.0 °F 67% 29.75 in 9.0 mi South 6.9 mph - N/A   Clear
6:53 AM 81.0 °F 84.9 °F 71.1 °F 72% 29.77 in 10.0 mi South 6.9 mph - N/A   Partly Cloudy
7:53 AM 84.0 °F 89.0 °F 71.1 °F 65% 29.79 in 10.0 mi South 6.9 mph - N/A   Partly Cloudy
8:53 AM 82.9 °F 87.5 °F 71.1 °F 67% 29.82 in 10.0 mi South 6.9 mph - N/A   Scattered Clouds
9:53 AM 87.1 °F 92.8 °F 71.1 °F 59% 29.83 in 10.0 mi SSW 6.9 mph - N/A   Partly Cloudy
10:53 AM 91.0 °F 96.6 °F 70.0 °F 50% 29.84 in 10.0 mi WSW 10.4 mph - N/A   Partly Cloudy
11:53 AM 93.0 °F 100.1 °F 71.1 °F 49% 29.83 in 10.0 mi Variable 4.6 mph - N/A   Scattered Clouds
12:53 PM 93.9 °F 99.1 °F 69.1 °F 44% 29.82 in 10.0 mi Calm Calm - N/A   Partly Cloudy
1:53 PM 98.1 °F 103.0 °F 68.0 °F 37% 29.80 in 10.0 mi South 5.8 mph - N/A   Partly Cloudy
2:53 PM 100.0 °F 107.0 °F 69.1 °F 37% 29.79 in 10.0 mi SW 11.5 mph 16.1 mph N/A   Partly Cloudy
3:53 PM 98.1 °F 101.2 °F 64.9 °F 34% 29.77 in 9.0 mi South 6.9 mph - N/A   Clear
4:53 PM 100.0 °F 101.8 °F 63.0 °F 29% 29.75 in 10.0 mi South 11.5 mph 17.3 mph N/A   Clear
5:53 PM 98.1 °F 99.1 °F 62.1 °F 30% 29.74 in 10.0 mi South 6.9 mph - N/A   Clear
6:53 PM 98.1 °F 99.6 °F 63.0 °F 31% 29.72 in 10.0 mi SSE 5.8 mph - N/A   Clear
7:53 PM 93.0 °F 94.6 °F 64.0 °F 38% 29.74 in 9.0 mi East 3.5 mph - N/A   Clear
8:53 PM 89.1 °F 90.3 °F 64.0 °F 43% 29.77 in 10.0 mi SSW 3.5 mph - N/A   Clear
9:53 PM 89.1 °F 89.0 °F 61.0 °F 39% 29.78 in 10.0 mi SSW 3.5 mph - N/A   Clear
10:53 PM 86.0 °F 86.1 °F 61.0 °F 43% 29.79 in 10.0 mi South 4.6 mph - N/A   Clear
11:53 PM 84.0 °F 86.3 °F 66.0 °F 55% 29.78 in 10.0 mi West 4.6 mph - N/A   Clear